This is the latest recevied weather packets stored in our database for station/object KB3HLL. If no packets are shown the sender has not sent any weather packets the latest 10 day(s).
| Time | Temp. | Humidity | Pressure | Rain* | Wind** | Luminosity | Snow |
|---|---|---|---|---|---|---|---|
| 1777664778 | 7.22° C | 96% | 1012.6 hPa | 0.25 mm | - | 187 W/m² | - |
| 1777664477 | 7.22° C | 96% | 1012.5 hPa | 0 mm | - | 206 W/m² | - |
| 1777664182 | 7.22° C | 97% | 1012.4 hPa | 0 mm | - | 298 W/m² | - |
| 1777663877 | 7.78° C | 92% | 1012.7 hPa | 0 mm | - | 279 W/m² | - |
| 1777663580 | 7.78° C | 91% | 1012.7 hPa | 0 mm | - | 144 W/m² | - |
| 1777663278 | 8.33° C | 87% | 1012.7 hPa | 0 mm | - | 136 W/m² | - |
| 1777662978 | 8.33° C | 84% | 1012.6 hPa | 0 mm | - | 100 W/m² | - |
| 1777662678 | 8.33° C | 84% | 1012.6 hPa | 0 mm | - | 89 W/m² | - |
| 1777662377 | 8.33° C | 80% | 1012.6 hPa | 0 mm | - | 97 W/m² | - |
| 1777662078 | 8.89° C | 76% | 1012.6 hPa | 0 mm | - | 117 W/m² | - |
| 1777661778 | 8.89° C | 76% | 1012.7 hPa | 0 mm | - | 142 W/m² | - |
| 1777661477 | 9.44° C | 72% | 1012.7 hPa | 0 mm | - | 152 W/m² | - |
| 1777661177 | 9.44° C | 71% | 1012.6 hPa | 0 mm | - | 172 W/m² | - |
| 1777660880 | 10° C | 67% | 1012.6 hPa | 0 mm | - | 225 W/m² | - |
| 1777660577 | 10° C | 65% | 1012.6 hPa | 0 mm | - | 229 W/m² | - |
| 1777660277 | 10° C | 67% | 1012.6 hPa | 0 mm | - | 198 W/m² | - |
| 1777659978 | 9.44° C | 67% | 1012.6 hPa | 0 mm | - | 201 W/m² | - |
| 1777659678 | 9.44° C | 67% | 1012.5 hPa | 0 mm | - | 203 W/m² | - |
| 1777659378 | 9.44° C | 69% | 1012.6 hPa | 0 mm | - | 233 W/m² | - |
| 1777659078 | 10° C | 69% | 1012.6 hPa | 0 mm | - | 242 W/m² | - |
| 1777658778 | 10° C | 68% | 1012.5 hPa | 0 mm | - | 243 W/m² | - |
| 1777658478 | 10° C | 65% | 1012.5 hPa | 0 mm | - | 287 W/m² | - |
| 1777658178 | 10° C | 62% | 1012.5 hPa | 0 mm | - | 205 W/m² | - |
| 1777657878 | 10° C | 62% | 1012.5 hPa | 0 mm | - | 240 W/m² | - |
| 1777657578 | 10° C | 62% | 1012.4 hPa | 0 mm | - | 304 W/m² | - |
* Rain latest hour (hover to see other rain measurements)
** Current wind speed in m/s (hover to see current wind gust speed)